Yeovilton, United Kingdom

8:11 AM BST on June 19, 2018 (GMT +0100)
Yeovil Radar Navy

Weather History for EGDY - October, 2017

Change the Weather History Date:

Thursday, October 26, 2017

  Actual Average Record
Temperature  
Mean Temperature 54 °F -  
Max Temperature 61 °F 51 °F 64 °F (2005)
Min Temperature 48 °F 39 °F 28 °F (1997)
Degree Days  
Heating Degree Days 10    
Growing Degree Days 4 (Base 50)    
Moisture  
Dew Point 55 °F    
Average Humidity 91    
Maximum Humidity 100    
Minimum Humidity 73    
Precipitation  
Precipitation 0.00 in - - ()
Sea Level Pressure  
Sea Level Pressure 30.26 in    
Wind  
Wind Speed 4 mph ()    
Max Wind Speed 8 mph    
Max Gust Speed -    
Visibility 5.4 miles    
Events Rain    
Averages and records for this station are not official NWS values.
T = Trace of Precipitation, MM = Missing Value Source: Averaged Metar Reports

Daily Weather History Graph

Daily Weather History Graph

Search for Another Location

Airport or City:

Astronomy

Oct. 26, 2017 Rise Set
Actual Time 7:52 AM BST 5:55 PM BST
Civil Twilight 7:18 AM BST 6:29 PM BST
Nautical Twilight 6:39 AM BST 7:08 PM BST
Astronomical Twilight 6:01 AM BST 7:46 PM BST
Moon 1:51 PM BST (10/26) 10:41 PM BST (10/26)
Length of Visible Light 11h 11m
Length of Day
10h 03m
Waxing Crescent, 36% of the Moon is Illuminated
Oct 26
Waxing Crescent
Oct 27
First Quarter
Nov 4
Full
Nov 10
Last Quarter
Nov 18
New

Hourly Weather History & Observations

Time (BST) Temp. Dew Point Humidity Pressure Visibility Wind Dir Wind Speed Gust Speed Precip Events Conditions
12:00 AM 51 °F 50 °F 95% 30.24 in 9 mi ESE 1.2 mph - -   Mostly Cloudy
12:50 AM 51.8 °F 51.8 °F 100% 30.21 in 6.2 mi SE 3.5 mph - N/A   Overcast
1:00 AM 52 °F 51 °F 95% 30.24 in 9 mi SE 3.5 mph - -   Scattered Clouds
1:50 AM 53.6 °F 53.6 °F 100% 30.21 in 4.3 mi SE 4.6 mph - N/A   Mostly Cloudy
2:00 AM 54 °F 53 °F 97% 30.23 in 4 mi SE 4.6 mph - -   Mist
2:50 AM 55.4 °F 53.6 °F 94% 30.21 in 5.0 mi ESE 4.6 mph - N/A   Mostly Cloudy
3:00 AM 54 °F 54 °F 100% 30.22 in 5 mi ESE 4.6 mph - -   Mist
3:50 AM 55.4 °F 55.4 °F 100% 30.21 in 3.1 mi ESE 2.3 mph - N/A   Light Drizzle
4:50 AM 55.4 °F 55.4 °F 100% 30.21 in 3.1 mi East 2.3 mph - N/A   Mostly Cloudy
5:00 AM 55 °F 55 °F 99% 30.22 in 3 mi East 2.3 mph - - Rain Light Rain
5:50 AM 55.4 °F 55.4 °F 100% 30.21 in 3.1 mi ESE 4.6 mph - N/A   Mostly Cloudy
6:00 AM 56 °F 55 °F 97% 30.22 in 3 mi ESE 4.6 mph - -   Mist
6:50 AM 57.2 °F 57.2 °F 100% 30.21 in 3.1 mi South 3.5 mph - N/A   Scattered Clouds
7:00 AM 57 °F 57 °F 98% 30.23 in 3 mi South 3.5 mph - -   Mist
7:50 AM 57.2 °F 57.2 °F 100% 30.21 in 3.1 mi South 6.9 mph - N/A   Mostly Cloudy
8:00 AM 58 °F 56 °F 93% 30.23 in 3 mi South 6.9 mph - -   Mist
8:50 AM 57.2 °F 57.2 °F 100% 30.24 in 3.1 mi SSW 6.9 mph - N/A   Mostly Cloudy
9:50 AM 59.0 °F 55.4 °F 88% 30.24 in 3.1 mi SW 8.1 mph - N/A   Haze
10:00 AM 58 °F 56 °F 90% 30.27 in 3 mi SW 8.1 mph - -   Haze
10:50 AM 59.0 °F 55.4 °F 88% 30.27 in 5.0 mi SW 4.6 mph - N/A   Haze
11:00 AM 59 °F 56 °F 86% 30.27 in 5 mi SW 4.6 mph - -   Haze
11:50 AM 59.0 °F 55.4 °F 88% 30.27 in 6.2 mi SW 8.1 mph - N/A   Mostly Cloudy
12:50 PM 59.0 °F 55.4 °F 88% 30.27 in 6.2 mi SW 6.9 mph - N/A   Mostly Cloudy
1:00 PM 59 °F 55 °F 82% 30.28 in 6 mi SW 6.9 mph - -   Mostly Cloudy
1:50 PM 59.0 °F 55.4 °F 88% 30.27 in 6.2 mi West 4.6 mph - N/A   Mostly Cloudy
2:50 PM 60.8 °F 55.4 °F 82% 30.27 in 6.2 mi WSW 3.5 mph - N/A   Mostly Cloudy
3:00 PM 60 °F 55 °F 78% 30.28 in 9 mi WSW 3.5 mph - -   Mostly Cloudy
3:50 PM 60.8 °F 55.4 °F 82% 30.27 in 6.2 mi West 4.6 mph - N/A   Mostly Cloudy
4:00 PM 61 °F 55 °F 73% 30.27 in 9 mi West 4.6 mph - -   Mostly Cloudy
4:26 PM 60.8 °F 55.4 °F 82% 30.24 in 6.2 mi West 3.5 mph - N/A   Scattered Clouds
4:50 PM 59.0 °F 55.4 °F 88% 30.27 in 6.2 mi West 2.3 mph - N/A   Scattered Clouds
5:00 PM 60 °F 54 °F 76% 30.27 in 9 mi West 2.3 mph - -   Scattered Clouds
5:50 PM 59.0 °F 55.4 °F 88% 30.27 in 6.2 mi West 2.3 mph - N/A   Mostly Cloudy
6:00 PM 59 °F 54 °F 80% 30.28 in 11 mi West 2.3 mph - -   Mostly Cloudy
6:50 PM 57.2 °F 53.6 °F 88% 30.27 in 6.2 mi WSW 3.5 mph - N/A   Overcast
7:00 PM 58 °F 54 °F 83% 30.29 in 6 mi WSW 3.5 mph - -   Overcast
7:50 PM 57.2 °F 53.6 °F 88% 30.30 in 6.2 mi West 4.6 mph - N/A   Mostly Cloudy
8:00 PM 57 °F 54 °F 88% 30.32 in 6 mi West 4.6 mph - -   Overcast
8:50 PM 57.2 °F 55.4 °F 94% 30.30 in 5.0 mi NW 4.6 mph - N/A   Haze
9:00 PM 57 °F 55 °F 90% 30.32 in 5 mi NW 4.6 mph - -   Haze
9:50 PM 57.2 °F 55.4 °F 94% 30.33 in 5.0 mi WNW 4.6 mph - N/A   Haze
10:00 PM 57 °F 54 °F 88% 30.34 in 5 mi WNW 4.6 mph - -   Haze
10:50 PM 55.4 °F 53.6 °F 94% 30.33 in 3.7 mi West 4.6 mph - N/A   Mostly Cloudy
11:50 PM 55.4 °F 53.6 °F 94% 30.36 in 6.2 mi West 4.6 mph - N/A   Mostly Cloudy